Location: Bemmer
(51.5498°N, 5.6249°E)
Time: 12:34:12
(UTC+00:00)

Cosmos 2341 Rocket - Pass Details

Date: 03 March 2021
Orbit: 968 x 1005 km, 82.9° (Epoch: 11 April)

Event Time Altitude Azimuth Distance (km) Brightness Sun altitude
Rises 18:30:27 0° 168° (SSE) 3,698 6.9 -11.5°
Reaches altitude 10° 18:33:03 10° 163° (SSE) 2,748 6.1 -11.9°
Maximum altitude 18:39:03 48° 91° (E) 1,263 4.2 -12.8°
Drops below altitude 10° 18:45:02 10° 19° (NNE) 2,741 6.2 -13.7°
Sets 18:47:37 0° 14° (NNE) 3,688 7.0 -14.1°
